Overview Statistics Trail Chart Weather Telemetry Raw packets
 

This is the latest recevied weather packets stored in our database for station/object K5IDL. If no packets are shown the sender has not sent any weather packets the latest 10 day(s).

<< 92 93 94 95 96 97 98 >>
Time Temp. Humidity Pressure Rain* Wind** Luminosity Snow
1788022998 37.78° C 42% 1019.1 hPa 0 mm - 610 W/m² -
1788022696 37.78° C 43% 1019.1 hPa 0 mm - 603 W/m² -
1788022394 36.11° C 44% 1019.1 hPa 0 mm - 596 W/m² -
1788022094 37.22° C 43% 1019.3 hPa 0 mm - 584 W/m² -
1788021800 36.67° C 43% 1019.2 hPa 0 mm - 578 W/m² -
1788021488 36.67° C 46% 1019.3 hPa 0 mm - 569 W/m² -
1788021181 37.22° C 42% 1019.1 hPa 0 mm - 560 W/m² -
1788020877 36.67° C 45% 1019.3 hPa 0 mm - 548 W/m² -
1788020571 36.11° C 45% 1019.4 hPa 0 mm - 537 W/m² -
1788020268 36.67° C 47% 1019.3 hPa 0 mm - 524 W/m² -
1788019958 36.11° C 45% 1019.3 hPa 0 mm - 516 W/m² -
1788019658 35.56° C 49% 1019.3 hPa 0 mm - 506 W/m² -
1788019367 35° C 49% 1019.3 hPa 0 mm - 496 W/m² -
1788019055 35.56° C 47% 1019.2 hPa 0 mm - 483 W/m² -
1788018750 36.11° C 48% 1019.2 hPa 0 mm - 471 W/m² -
1788018445 35.56° C 49% 1019.1 hPa 0 mm - 459 W/m² -
1788018144 36.11° C 48% 1019.2 hPa 0 mm - 445 W/m² -
1788017841 35° C 49% 1019.2 hPa 0 mm - 433 W/m² -
1788017537 35° C 47% 1019.3 hPa 0 mm - 419 W/m² -
1788017234 33.89° C 52% 1019.5 hPa 0 mm - 407 W/m² -
1788016928 35° C 49% 1019.5 hPa 0 mm - 392 W/m² -
1788016627 35.56° C 48% 1019.3 hPa 0 mm - 379 W/m² -
1788016321 36.11° C 48% 1019.2 hPa 0 mm - 363 W/m² -
1788016020 35° C 52% 1019.3 hPa 0 mm - 349 W/m² -
1788015715 33.33° C 53% 1019.1 hPa 0 mm - 335 W/m² -

* Rain latest hour (hover to see other rain measurements)
** Current wind speed in m/s (hover to see current wind gust speed)